Back to catalog

LUR-1

AliveScienceSSO
NORAD 60506·PAYLOAD·🇪🇸 Spain

Launched Aug 16, 2024 from Vandenberg Space Force Base

Loading…

Next Passes (next 24 hours)

TLE

FreshSource: Space-Track

Epoch: Sep 13, 2026, 22:58 UTC

1 60506U 24149AQ  26256.95746429  .00005876  00000-0  19806-3 0  9997
2 60506  97.3677 335.1745 0003929  13.7051 346.4296 15.31111989115556

Track LUR-1 in real time with AllMySat

Download on the App Store